STARLINK-2447

Last updated on Sat May 08 2021 00:02:04 GMT+0000 (Coordinated Universal Time)

1 48110U 21027U 21127.58334491 .00056398 00000-0 40372-3 0 9996 2 48110 53.0474 191.7563 0002515 31.8317 266.1420 15.73184608 1776

Satellite not in orbit